844  
ASHW40 PHFO 310143  
RWRHI  
 
WEATHER ROUNDUP FOR HAWAII  
NATIONAL WEATHER SERVICE HONOLULU HI  
300 PM HST TUE AUG 30 2016  
 
THIS IS AN AUTOMATED REPORT THAT HAS NOT BEEN QUALITY CONTROLLED.  
 
NOTE..."FAIR" INDICATES FEW OR NO CLOUDS BELOW 12,000 FEET WITH NO  
SIGNIFICANT WEATHER AND/OR S TO VISIBILITY
.  
 
* - THESE SITES REPORT LIMITED FIELDS  
 
HIZ001>004-310200-  
KAUAI-NIIHAU-  
 
CITY SKY/WX TMP DP RH WIND PRES REMARKS
 
LIHUE APT LGT RAIN 79 72 79 NE17 30.00F  
PORT ALLEN* N/A 90 N/A N/A E18G28 N/A  
POIPU* N/A 86 N/A N/A NE9G21 N/A  
PRINCEVILLE* N/A 79 N/A N/A E10G18 N/A  
KOKOLE POINT* NOT AVBL  
MOLOAA DAIRY* N/A 79 72 78 SE3G15 N/A  
WAIMEA HTS* N/A 88 64 45 NE3G20 N/A  
PUU OPAE* N/A 81 66 61 W5G13 N/A  
PUU LUA* NOT AVBL  
MAKAHA RIDGE* N/A 82 64 54 SW3G9 N/A  

 
 
HIZ005>011-310200-  
OAHU-  
 
CITY SKY/WX TMP DP RH WIND PRES REMARKS
 
HONOLULU PTSUNNY 85 71 63 NE13 29.95F HX 90  
KALAELOA PTSUNNY 87 72 60 E8G18 29.96F HX 93  
KANEOHE MCB LGT RAIN 81 77 88 NE9 29.94F  
WHEELER FIELD FAIR 80 73 77 NE10 29.98F  
BELLOWS* N/A N/A N/A N/A N8G14 N/A  
KAHUKU* N/A N/A N/A N/A VRB1 N/A  
WHEELER* N/A N/A N/A N/A E7G16 N/A  
WAIANAE HARBOR NOT AVBL  
DILLINGHAM* N/A 79 73 83 MISG N/A  
KAHUKU TRN* N/A 75 75 100 N8G22 N/A  
KAWAILOA* N/A 75 72 88 E10G18 N/A  
KII* N/A 79 75 89 NE14G24 N/A  
MAKUA RANGE* N/A 79 73 83 W12G21 N/A  
OAHU FOREST NW NOT AVBL  
SCHOFIELD BRK* N/A 79 72 78 MISG N/A  
SCHOFIELD S* NOT AVBL  
WAIANAE VLY* NOT AVBL  
KUAOKALA* NOT AVBL  
HONOULIUULI* NOT AVBL  
MOKUOLOE IS* NOT AVBL  
PALEHUA* N/A N/A N/A N/A MISG N/A  
WAIAWA PHB* NOT AVBL  

 
 
HIZ012>013-310200-  
MOLOKAI-  
 
CITY SKY/WX TMP DP RH WIND PRES REMARKS
 
MOLOKAI AIRPT PTSUNNY 82 72 71 NE15G22 29.96F  
KALAUPAPA NOT AVBL  
MAKAPULAPAI* N/A 81 75 83 E18G26 N/A  
MOLOKAI 1* NOT AVBL  
PUU ALII* N/A 67 67 100 N2G12 N/A  

 
 
HIZ016-310200-  
KAHOOLAWE-  
 
CITY SKY/WX TMP DP RH WIND PRES REMARKS
 
KAHOOLAWE* N/A 75 N/A N/A SE1 N/A  
HAKIOAWA* N/A 79 73 83 MISG 30.37F  
HONOKANAIA* N/A 83 76 79 NE10G29 N/A HX 91  
KANELOA* N/A 77 73 88 E15G26 30.03F  
KEALIALALO* NOT AVBL  
LUA MAKIKA* NOT AVBL  

 
 
HIZ014>015-310200-  
LANAI-  
 
CITY SKY/WX TMP DP RH WIND PRES REMARKS
 
LANAI CITY CLOUDY 81 72 74 S12 30.00F  
LANAI 1* NOT AVBL  

 
 
HIZ017>028-310200-  
MAUI-  
 
CITY SKY/WX TMP DP RH WIND PRES REMARKS
 
KAHULUI LGT RAIN 83 72 69 NE16G22 29.94R  
KAPALUA-W MAUI PTSUNNY 82 72 69 NE14 29.96F  
HANA AIRPORT LGT RAIN 77 75 94 S2 29.98F  
HANA* N/A 77 N/A N/A S3 N/A  
HALEAKALA SUMM N/A 52 50 93 E16 N/A  
MAALAEA BAY* N/A 86 N/A N/A N24G35 N/A  
HALEAKALA* NOT AVBL  
KAUPO GAP* N/A 79 70 73 VRB8G24 N/A  
KULA 1* N/A 63 62 96 NW3G9 N/A  

 
 
HIZ023>026-310200-  
BIG ISLAND OF HAWAII COAST AND LOWER SLOPES-  
 
CITY SKY/WX TMP DP RH WIND PRES REMARKS
 
KAILUA KONA PTSUNNY 87 71 58 S15 29.91F HX 93  
HILO LGT RAIN 79 75 89 NW5 29.95F  
HONOKAA* N/A 75 N/A N/A VRB1 N/A  
KAWAIHAE MWT* N/A 88 N/A N/A W3 N/A  
KAWAIHAE* N/A 84 N/A N/A W3 29.92F  
SOUTH POINT* N/A 81 N/A N/A N13G18 N/A  
UPOLU AIRPORT* NOT AVBL  
KAMUELA* MOCLDY 73 70 88 N21 30.05F  
HAKALAU* N/A 63 62 95 E5 N/A  
KALOKO-HONOKO* N/A 86 70 58 S9 29.91F HX 90  
PALI 2* N/A 75 66 73 W7G18 N/A  
KEALAKOMO* N/A 84 70 61 E22G29 N/A  
KAUPULEHU* N/A 90 63 40 N7G18 N/A HX 90  
KAPAPALA* N/A 79 72 78 S7G13 N/A  
LOWER KAHUKU* N/A 72 68 88 S1 N/A  
PUHE CS* N/A 88 70 55 SW2G8 N/A HX 92  
PUHO CS* N/A 87 69 55 SW3 N/A HX 91  
PTA KEAMUKU* N/A 72 66 83 CALM N/A  
WAIKOLOA* N/A 84 70 61 NW5G12 N/A  

 
 
HIZ027>028-310200-  
BIG ISLAND OF HAWAII INTERIOR AND SUMMMITS-  
 
CITY SKY/WX TMP DP RH WIND PRES REMARKS
 
BRADSHAW FIELD MOSUNNY 71 55 56 S8G18 30.29F  
MK VISITOR CEN N/A 57 50 77 SE17 N/A  
MAUNA KEA* N/A 45 36 70 SE14 N/A  
MAUNA LOA* N/A 52 45 76 MISG N/A  
MAUNA LOA 1* NOT AVBL  
PTA KIPUKA* N/A 68 68 100 NW8G16 N/A  
PTA RANGE 17* N/A 66 64 94 W8G21 N/A  
PTA WEST* N/A 68 66 94 NW15G22 N/A  
NENE CABIN* N/A 64 57 77 SE7G16 N/A  
AHUMOA* N/A 69 61 76 NE6G13 N/A  
PTA PORTABLE* NOT AVBL  
PUU MALI* N/A 66 57 72 E24G36 N/A  

 
 
HIC003-310200-  
NORTHWEST ISLANDS-  
 
CITY SKY/WX TMP DP RH WIND PRES REMARKS
 
MIDWAY ISLAND PTSUNNY 81 75 83 S20 29.93F  
MIDWAY NOS* N/A 79 N/A N/A MISG 29.92F  
FRENCH FRIGATE NOT AVBL  

 
 
PHZ110>124-180-310200-  
BUOY REPORTS  
 
STATION/POSITION TIME TEMP WIND PRES WAVE SWELL
 
AIR SEA DIR/SP/G HT/PER HT/DIR  
(UTC) (F) (DEG/KT/KT) (MB) (FT/S) (FT/D)  
BUOY 51001 NOT AVBL  
BUOY 51101 0050 80 81 80/ 17/ 21 1016.5F 7/ 7 3/160  
BUOY 51100 NOT AVBL  
BUOY 51002 NOT AVBL  
BUOY 51003 0050 81 83 70/ 12/ 16 1013.7F 6/ 7 5/ 90  
BUOY 51004 0050 81 83 350/ 14/ 16 1010.9F 8/11 8/ 60  
BARBERS PT BUOY NOT AVBL  
WAIMEA BAY BUOY 0104 81 N/A 6/10 2/ 20  
KAILUA BAY BUOY 0111 81 N/A 7/ 8 2/ 70  
LANAI BUOY 0115 83 N/A 2/10 2/190  
BARBERS PT 2 NOT AVBL  
PAUWELA MAUI 0109 81 N/A 6/ 8 2/ 70  
HILO 0112 82 N/A 8/13 5/100  
KANEOHE BAY BUOY 0106 80 N/A 7/ 8 2/ 50  
HANALEI KAUAI NOT AVBL  
KAHULUI HARBOR 0100 80 81 1013.7F  
HONOLULU HARBOR 0100 83 82 1014.7F  
KILO NALU NOT AVBL  
HILO HARBOR 0100 79 81 1013.6F  
MOKUOLOE 0000 78 82 30/ 11/ 14 1015.9F  
NAWILIWILI 0100 80 81 1015.6F  
WHOTS BUOY NOT AVBL  
BUOY 51028 NOT AVBL  

 
   
.....................KEY.....................................
 
 
SKY/WX - SKY CONDITIONS/PRESENT WEATHER  
TMP - TEMPERATURE IN FAHRENHEIT  
DWPT - DEWPOINT IN FAHRENHEIT  
RH - RELATIVE HUMIDITY IN PERCENT  
WIND - DIRECTION AND SPEED /MPH FOR ISLANDS...KTS FOR BUOYS/  
PRES - MEAN SEA LEVEL PRESSURE IN INCHES OF HG  
VSB - VISIBILITY IN MILES  
HX - HEAT INDEX  
WCI - WIND CHILL INDEX  
VRB - VARIABLE WIND DIRECTION  
N/A - NOT AVAILABLE  
 
 
CLICK HERE TO GO TO PREVIOUS BULLETINS.

The Nexlab HI Page Main Text Page